GSAT0215 (GALILEO 19)

Last updated on Mon Sep 21 2026 00:02:49 GMT+0000 (Coordinated Universal Time)

1 43055U 17079A 26263.04174321 .00000016 00000+0 00000+0 0 9997 2 43055 55.0515 218.8980 0003123 284.8680 75.0703 1.70473925 54606
UTC large
Height (km)
Speed (km/s)
/
Latitude / Longitude
Inclination (degrees)
Orbital Period (minutes)
Azimuth
Elevation
Range (km)
Doppler Factor

Next 0 passes for location: London (51.5072 / 0.1276)

No passes found over London.
GSAT0215 (GALILEO 19)